Pagosa Springs, CO

6:57 AM MDT on July 23, 2017 (GMT -0600)
Pagosa Springs

Weather History for KPSO - August, 2013

Change the Weather History Date:

Saturday, August 3, 2013

  Actual Average (KE33) Record (KE33)
Temperature  
Mean Temperature 67 °F -  
Max Temperature 79 °F 72 °F 80 °F (1997)
Min Temperature 55 °F 54 °F 51 °F (2005)
Cooling Degree Days 2    
Growing Degree Days 17 (Base 50)    
Moisture  
Dew Point 49 °F    
Average Humidity 63    
Maximum Humidity 96    
Minimum Humidity 26    
Precipitation  
Precipitation 0.00 in - - ()
Sea Level Pressure  
Sea Level Pressure 30.37 in    
Wind  
Wind Speed 2 mph (WSW)    
Max Wind Speed 16 mph    
Max Gust Speed 22 mph    
Visibility 10 miles    
Events Rain , Thunderstorm    
Averages and records for this station are not official NWS values.
T = Trace of Precipitation, MM = Missing Value Source: NWS Daily Summary

Daily Weather History Graph

Daily Weather History Graph

Search for Another Location

Airport or City:

Trip Planner

Search our weather history database for the weather conditions in past years. The results will help you decide how hot, cold, wet, or windy it might be!

Date:

Astronomy

Aug. 03, 2013 Rise Set
Actual Time 6:14 AM MDT 8:13 PM MDT
Civil Twilight 5:46 AM MDT 8:42 PM MDT
Nautical Twilight 5:11 AM MDT 9:16 PM MDT
Astronomical Twilight 4:33 AM MDT 9:54 PM MDT
Moon 3:27 AM MDT (8/3) 5:57 PM MDT (8/3)
Length of Visible Light 14h 56m
Length of Day
13h 58m
Waning Crescent, 9% of the Moon is Illuminated
Aug 3
Waning Crescent
Aug 6
New
Aug 14
First Quarter
Aug 20
Full
Aug 28
Last Quarter

Hourly Weather History & Observations

Time (MDT) Temp. Dew Point Humidity Pressure Visibility Wind Dir Wind Speed Gust Speed Precip Events Conditions
12:15 AM 55.9 °F 53.6 °F 92% 30.42 in 10.0 mi Calm Calm - N/A   Overcast
12:35 AM 55.8 °F 54.1 °F 94% 30.41 in 10.0 mi Calm Calm - N/A   Overcast
12:55 AM 55.6 °F 54.5 °F 96% 30.42 in 10.0 mi East 4.6 mph - N/A   Overcast
1:15 AM 55.4 °F 54.1 °F 96% 30.41 in 10.0 mi North 3.5 mph - N/A   Overcast
1:35 AM 55.8 °F 53.6 °F 92% 30.41 in 10.0 mi Calm Calm - N/A   Overcast
1:55 AM 55.4 °F 54.0 °F 95% 30.40 in 10.0 mi Calm Calm - N/A   Overcast
2:15 AM 55.4 °F 53.6 °F 94% 30.39 in 10.0 mi Calm Calm - N/A   Overcast
2:35 AM 55.6 °F 53.6 °F 93% 30.39 in 10.0 mi Calm Calm - N/A   Overcast
2:55 AM 56.7 °F 53.1 °F 88% 30.38 in 10.0 mi Calm Calm - N/A   Overcast
3:15 AM 56.8 °F 51.6 °F 83% 30.38 in 10.0 mi Calm Calm - N/A   Overcast
3:35 AM 56.3 °F 52.0 °F 85% 30.36 in 10.0 mi Calm Calm - N/A   Scattered Clouds
3:55 AM 56.7 °F 51.3 °F 82% 30.36 in 10.0 mi Calm Calm - N/A   Mostly Cloudy
4:15 AM 56.3 °F 50.4 °F 80% 30.36 in 10.0 mi NNW 3.5 mph - N/A   Mostly Cloudy
4:35 AM 55.9 °F 50.4 °F 82% 30.36 in 10.0 mi Calm Calm - N/A   Mostly Cloudy
4:55 AM 55.9 °F 51.1 °F 84% 30.36 in 10.0 mi NW 3.5 mph - N/A   Overcast
5:15 AM 55.4 °F 52.0 °F 88% 30.36 in 10.0 mi Calm Calm - N/A   Mostly Cloudy
5:35 AM 55.4 °F 52.9 °F 91% 30.36 in 10.0 mi Calm Calm - N/A   Scattered Clouds
5:55 AM 55.2 °F 52.5 °F 91% 30.36 in 10.0 mi Calm Calm - N/A   Mostly Cloudy
6:15 AM 55.6 °F 52.0 °F 88% 30.36 in 10.0 mi Calm Calm - N/A   Overcast
6:35 AM 56.7 °F 49.5 °F 77% 30.36 in 10.0 mi Calm Calm - N/A   Overcast
6:55 AM 57.2 °F 48.9 °F 74% 30.36 in 10.0 mi NW 3.5 mph - N/A   Overcast
7:15 AM 57.7 °F 50.0 °F 75% 30.36 in 10.0 mi Calm Calm - N/A   Overcast
7:35 AM 58.1 °F 49.8 °F 74% 30.37 in 10.0 mi Calm Calm - N/A   Overcast
7:55 AM 59.0 °F 48.6 °F 68% 30.38 in 10.0 mi Calm Calm - N/A   Overcast
8:15 AM 59.0 °F 49.3 °F 70% 30.38 in 10.0 mi Calm Calm - N/A   Overcast
8:35 AM 57.7 °F 52.7 °F 83% 30.38 in 10.0 mi Calm Calm - N/A   Overcast
8:55 AM 58.1 °F 54.7 °F 88% 30.39 in 10.0 mi Calm Calm - N/A   Overcast
9:15 AM 57.9 °F 54.9 °F 90% 30.39 in 10.0 mi Calm Calm - N/A   Overcast
9:35 AM 59.0 °F 53.2 °F 81% 30.39 in 10.0 mi Calm Calm - N/A   Overcast
9:55 AM 60.6 °F 52.2 °F 74% 30.39 in 10.0 mi Calm Calm - N/A   Overcast
10:15 AM 63.7 °F 52.3 °F 67% 30.39 in 10.0 mi Calm Calm - N/A   Mostly Cloudy
10:35 AM 64.8 °F 52.9 °F 65% 30.39 in 10.0 mi Calm Calm - N/A   Scattered Clouds
10:55 AM 66.2 °F 51.1 °F 58% 30.39 in 10.0 mi Calm Calm - N/A   Scattered Clouds
11:15 AM 67.5 °F 48.9 °F 51% 30.39 in 10.0 mi Calm Calm - N/A   Scattered Clouds
11:35 AM 69.4 °F 47.3 °F 45% 30.38 in 10.0 mi SW 5.8 mph - N/A   Scattered Clouds
11:55 AM 71.1 °F 45.3 °F 40% 30.38 in 10.0 mi WSW 4.6 mph - N/A   Clear
12:15 PM 72.7 °F 44.1 °F 36% 30.38 in 10.0 mi SSW 5.8 mph - N/A   Clear
12:35 PM 72.9 °F 46.8 °F 39% 30.37 in 10.0 mi Calm Calm - N/A   Clear
12:55 PM 74.3 °F 46.4 °F 37% 30.36 in 10.0 mi South 4.6 mph - N/A Thunderstorm Clear
1:15 PM 75.4 °F 45.9 °F 35% 30.36 in 10.0 mi SSW 6.9 mph - N/A   Clear
1:35 PM 76.3 °F 46.6 °F 35% 30.36 in 10.0 mi SSW 8.1 mph - N/A   Clear
1:55 PM 76.5 °F 45.9 °F 34% 30.35 in 10.0 mi South 5.8 mph - N/A   Scattered Clouds
2:15 PM 78.1 °F 44.8 °F 31% 30.35 in 10.0 mi SSW 6.9 mph - N/A   Mostly Cloudy
2:35 PM 77.9 °F 45.0 °F 31% 30.34 in 10.0 mi WSW 5.8 mph 16.1 mph N/A   Scattered Clouds
2:55 PM 77.9 °F 46.0 °F 32% 30.33 in 10.0 mi SW 8.1 mph - N/A   Scattered Clouds
3:15 PM 77.9 °F 42.8 °F 29% 30.33 in 10.0 mi Calm Calm - N/A   Scattered Clouds
3:35 PM 78.6 °F 43.5 °F 29% 30.32 in 10.0 mi SSW 10.4 mph - N/A   Clear
3:55 PM 79.3 °F 42.6 °F 27% 30.32 in 10.0 mi SW 6.9 mph - N/A   Clear
4:15 PM 78.6 °F 44.1 °F 29% 30.32 in 10.0 mi WSW 12.7 mph 16.1 mph N/A   Scattered Clouds
4:35 PM 79.0 °F 43.3 °F 28% 30.31 in 10.0 mi WSW 12.7 mph 16.1 mph N/A   Scattered Clouds
4:55 PM 79.0 °F 42.6 °F 27% 30.31 in 10.0 mi SW 12.7 mph 20.7 mph N/A Thunderstorm Scattered Clouds
5:15 PM 79.3 °F 41.7 °F 26% 30.31 in 10.0 mi WSW 5.8 mph 17.3 mph N/A Thunderstorm Thunderstorm
5:35 PM 77.5 °F 45.1 °F 32% 30.31 in 10.0 mi WNW 16.1 mph 21.9 mph N/A Thunderstorm Mostly Cloudy
5:55 PM 77.0 °F 46.4 °F 34% 30.32 in 10.0 mi NW 12.7 mph 21.9 mph N/A   Mostly Cloudy
6:15 PM 77.0 °F 44.2 °F 31% 30.33 in 10.0 mi NNW 6.9 mph - N/A   Mostly Cloudy
6:35 PM 74.8 °F 42.8 °F 32% 30.34 in 10.0 mi NW 5.8 mph - N/A   Overcast
6:55 PM 73.4 °F 43.7 °F 34% 30.34 in 10.0 mi ENE 4.6 mph - N/A   Overcast
7:15 PM 70.7 °F 50.0 °F 48% 30.36 in 10.0 mi SE 5.8 mph - N/A Rain Rain
7:35 PM 66.0 °F 52.3 °F 61% 30.36 in 10.0 mi ENE 10.4 mph - N/A Rain Light Rain
7:55 PM 65.8 °F 50.9 °F 58% 30.35 in 10.0 mi NE 9.2 mph - N/A Rain Light Rain
8:15 PM 65.5 °F 50.9 °F 59% 30.36 in 10.0 mi NE 3.5 mph - N/A   Mostly Cloudy
8:35 PM 64.6 °F 53.4 °F 67% 30.36 in 10.0 mi Calm Calm - N/A   Mostly Cloudy
8:55 PM 63.7 °F 52.0 °F 66% 30.36 in 10.0 mi NE 3.5 mph - N/A   Scattered Clouds
9:15 PM 63.5 °F 52.7 °F 68% 30.38 in 10.0 mi Calm Calm - N/A   Clear
9:35 PM 63.0 °F 49.6 °F 62% 30.38 in 10.0 mi Calm Calm - N/A   Clear
9:55 PM 62.8 °F 49.1 °F 61% 30.38 in 10.0 mi Calm Calm - N/A   Clear
10:15 PM 60.1 °F 50.9 °F 72% 30.39 in 10.0 mi Calm Calm - N/A   Clear
10:35 PM 61.7 °F 48.9 °F 63% 30.39 in 10.0 mi WNW 3.5 mph - N/A   Clear
10:55 PM 58.5 °F 50.4 °F 74% 30.39 in 10.0 mi Calm Calm - N/A   Clear
11:15 PM 58.6 °F 50.0 °F 73% 30.39 in 10.0 mi West 3.5 mph - N/A   Clear
11:35 PM 59.4 °F 49.1 °F 69% 30.39 in 10.0 mi Calm Calm - N/A   Clear
11:55 PM 57.4 °F 50.2 °F 77% 30.38 in 10.0 mi Calm Calm - N/A   Clear